Regional Weather Roundup
Issued by NWS Upton, NY

Current Version | Previous Version | Text Only | Print | Product List | Glossary Off
Versions: 1 2 3 4 5 6 7 8 9 10 11 12 13 14 15 16 17 18 19 20 21 22 23 24 25 26 27 28 29 30 31 32 33 34 35 36 37 38 39 40 41 42 43 44 45 46 47 48 49 50
000 ASUS41 KOKX 121704 RWROKX REGIONAL WEATHER ROUNDUP NATIONAL WEATHER SERVICE NEW YORK NY 1200 PM EST FRI FEB 12 2016 NOTE: "FAIR" INDICATES FEW OR NO CLOUDS BELOW 12,000 FEET WITH NO SIGNIFICANT WEATHER AND/OR OBSTRUCTIONS TO VISIBILITY. NYZ071-072-176-178-NJZ106-104-121800- NEW YORK CITY METRO AREA CITY SKY/WX TMP DP RH WIND PRES REMARKS CENTRAL PARK SUNNY 25 -1 32 NW7 30.20F WCI 17 LAGUARDIA APRT PTSUNNY 25 -1 32 SW8 30.19F WCI 16 KENNEDY INTL PTSUNNY 24 1 36 SW9 30.21F WCI 14 NEWARK/LIBERTY PTSUNNY 26 0 32 VRB3 30.19F BRNX BOT. GARD N/A 27 0 31 W10 30.17F WCI 17 TETERBORO SUNNY 24 -3 30 SE10G17 30.18F WCI 14 $$ NYZ177-179-078>081-121800- LONG ISLAND NEW YORK CITY SKY/WX TMP DP RH WIND PRES REMARKS FARMINGDALE SUNNY 24 1 36 W5 30.19F WCI 18 ISLIP PTSUNNY 24 2 38 W7 30.18F WCI 16 SHIRLEY SUNNY 23 1 38 VRB3 30.20F RIVERHEAD N/A 30 -2 24 W6 30.16F WCI 24 WESTHAMPTON SUNNY 21 5 50 S7 30.20F WCI 12 EAST HAMPTON FAIR 22 5 49 SW7 30.20F WCI 13 MONTAUK POINT N/A 24 8 50 W9 30.20F WCI 14 $$ NYZ052-065-067-121800- HUDSON VALLEY CITY SKY/WX TMP DP RH WIND PRES REMARKS WHITE PLAINS SUNNY 22 -1 36 VRB6 30.14F WCI 14 NEWBURGH PTSUNNY 21 3 45 SW8 30.13F WCI 12 MONTGOMERY CLOUDY 23 1 38 SW8 30.11F WCI 14 POUGHKEEPSIE MOSUNNY 23 0 36 VRB7 30.15F WCI 15 ALBANY CLOUDY 20 4 50 S8 30.10F WCI 10 $$ NJZ001-105-106-008-010-013-015-019>022-104-121800- NEW JERSEY CITY SKY/WX TMP DP RH WIND PRES REMARKS NEWARK/LIBERTY PTSUNNY 26 0 32 VRB3 30.19F TETERBORO SUNNY 24 -3 30 SE10G17 30.18F WCI 14 CALDWELL SUNNY 23 -2 33 VRB7 30.17F WCI 15 MORRISTOWN PTSUNNY 25 7 46 S13 30.17F WCI 13 SOMERVILLE SUNNY 25 3 38 VRB3 30.18F SUSSEX MOSUNNY 24 3 40 SW6 30.11F WCI 17 ANDOVER N/A 22 2 42 SW10 30.12F WCI 11 TRENTON SUNNY 24 3 40 W8 30.19F WCI 15 MILLVILLE CLOUDY 24 3 40 VRB7 30.22F WCI 16 ATLANTIC CITY MOSUNNY 25 -1 32 SW6 30.22F WCI 18 WRIGHTSTOWN NOT AVBL TOMS RIVER MOSUNNY 27 1 33 SW9 30.21F WCI 17 BELMAR MOSUNNY 23 0 36 CALM 30.19F $$ PAZ047>061-062-071-121800- EASTERN PENNSYLVANIA CITY SKY/WX TMP DP RH WIND PRES REMARKS PHILADELPHIA CLOUDY 24 0 35 SW8 30.23F WCI 15 ALLENTOWN MOSUNNY 21 5 50 SW13 30.17F WCI 9 SCRANTON CLOUDY 17 2 51 SW12G20 30.08F WCI 4 $$ CTZ002-004>006-009-010-012-RIZ004-006-007-MAZ004-011-015-121800- SOUTHERN NEW ENGLAND IN CT CITY SKY/WX TMP DP RH WIND PRES REMARKS BRADLEY INTL PTSUNNY 21 2 43 SW9 30.14F WCI 11 HARTFORD SUNNY 23 4 44 VRB7 30.17F WCI 15 DANBURY SUNNY 21 -1 38 W9 30.14F WCI 11 WTRBRY/OXFORD MOSUNNY 19 -2 38 W5 30.13F WCI 13 BRIDGEPORT SUNNY 23 4 44 SW9 30.19F WCI 13 MERIDEN SUNNY 22 0 38 NW3 30.16F NEW HAVEN SUNNY 22 2 42 SW7 30.18F WCI 13 CHESTER FAIR 21 -2 35 CALM 30.14F GROTON SUNNY 21 7 54 SW10 30.18F WCI 10 WILLIMANTIC SUNNY 21 0 39 SW6 30.16F WCI 13 IN RI CITY SKY/WX TMP DP RH WIND PRES REMARKS PROVIDENCE MOSUNNY 20 2 45 W8 30.17F WCI 10 BLOCK ISLAND MOSUNNY 25 9 50 W8 30.17F WCI 16 WESTERLY SUNNY 22 2 42 SW10 30.18F WCI 11 IN MA CITY SKY/WX TMP DP RH WIND PRES REMARKS BOSTON PTSUNNY 19 -1 41 W8 30.14F WCI 9 WORCESTER MOSUNNY 15 0 51 W17 30.05F WCI -1 WESTFIELD CLOUDY 19 0 43 S7 30.13F WCI 10 PROVINCETOWN SUNNY 20 4 50 W8 30.16F WCI 10 NANTUCKET SUNNY 20 4 50 W12 30.17F WCI 8 $$ ANZ330-335-338-340-345-350-353-355-121800- COASTAL MARINE OBSERVATIONS STATION/POSITION TIME SKY/WX TEMP WIND PRES VSBY WAVE AIR SEA DIR/SP/G HT/PER (UTC) (F) (DEG/KT/KT) (MB) (MI) (FT/S) NY HARB ENTRANCE 1550 21 42 290/ 6/ 8 1023.7 1/ 9 4S FIRE IS NOT AVBL 20S FIRE ISLAND 1550 21 42 310/ 6/ 8 1023.9 2/ 4 GREAT SOUTH BAY NOT AVBL 23SW MTP 1650 21 45 270/ 8/ 10 1022.5 3/ 6 HUDSON CANYON 1550 25 48 1023.7 4/ 6 KINGS POINT 1600 20 36 260/ 3/ 6 1022.9 EXECUTION ROCKS NOT AVBL CENTRAL LI SOUND NOT AVBL EASTERN LI SOUND 1600 22 41 260/ 10/ 16 N/A ROBBINS REEF 1600 20 260/ 6/ 9 1023.0 $$ >>>>>>>>>>>>>>>>>>>>>>>>>>>> KEY <<<<<<<<<<<<<<<<<<<<<<<<<<< > < > SKY/WX - SKY CONDITION/PRESENT WEATHER < > TMP - TEMPERATURE IN FAHRENHEIT < > DP - DEWPOINT IN FAHRENHEIT < > RH - RELATIVE HUMIDITY IN PERCENT < > WIND - DIRECTION AND SPEED IN MPH < > PRES - MEAN SEA LEVEL PRESSURE IN INCHES OF HG < > WCI - WIND CHILL INDEX < > VSB - VISIBILITY IN MILES < > HX - HEAT INDEX < > TC - TEMPERATURE IN CELSIUS < > VRB - VARIABLE WIND DIRECTION < > < >>>>>>>>>>>>>>>>>>>>>>>>>>>> KEY <<<<<<<<<<<<<<<<<<<<<<<<<<<

USA.gov is the U.S. government's official web portal to all federal, state and local government web resources and services.